Printer-friendly version
Follow the MPC on Twitter Follow the MPC on Facebook The MPC blog
Minor Planet Center

MPEC 2010-N15 : 2010 NG

The following Minor Planet Electronic Circular may be linked-to from your own Web pages, but must not otherwise be redistributed electronically.

A form allowing access to any MPEC is at the bottom of this page.


Read MPEC 2010-N14 Read MPEC 2010-N16


M.P.E.C. 2010-N15                                Issued 2010 July 5, 17:46 UT

     The Minor Planet Electronic Circulars contain information on unusual
         minor planets and routine data on comets.  They are published
   on behalf of Commission 20 of the International Astronomical Union by the
          Minor Planet Center, Smithsonian Astrophysical Observatory,
                          Cambridge, MA 02138, U.S.A.

             Prepared using the Tamkin Foundation Computer Network

                              MPC@CFA.HARVARD.EDU
       URL http://www.minorplanetcenter.org/iau/mpc.html  ISSN 1523-6714

                                    2010 NG

Observations:
     K10N00G* C2010 07 04.29038 16 53 19.32 -00 06 29.5          19.1 V EN015G96
     K10N00G  C2010 07 04.29748 16 53 19.64 -00 07 23.6          19.0 V EN015G96
     K10N00G  C2010 07 04.30468 16 53 20.04 -00 08 19.2          19.3 V EN015G96
     K10N00G  C2010 07 04.31183 16 53 20.36 -00 09 13.8          19.1 V EN015G96
     K10N00G  C2010 07 04.35243 16 53 22.74 -00 14 27.0          19.0 V EN015G96
     K10N00G  C2010 07 04.35306 16 53 22.77 -00 14 31.9          19.1 V EN015G96
     K10N00G  C2010 07 04.35365 16 53 22.81 -00 14 36.6          19.2 V EN015G96
     K10N00G  C2010 07 04.35424 16 53 22.84 -00 14 41.3          19.1 V EN015G96
     K10N00G 4C2010 07 04.40603016 53 27.756-00 21 30.47         17.5 R EN015673
     K10N00G `C2010 07 04.57635 16 53 55.97 -00 39 54.5          20.1 R EN015D90
     K10N00G `C2010 07 04.58696 16 53 56.39 -00 41 21.0          19.5 R EN015D90
     K10N00G `C2010 07 04.59743 16 53 57.12 -00 42 45.2          19.3 R EN015D90
     K10N00G KC2010 07 04.93606 16 54 47.16 -01 35 04.8          19.0 V EN015J87
     K10N00G KC2010 07 04.93998 16 54 47.42 -01 35 39.3          19.4 V EN015J87
     K10N00G KC2010 07 04.94403 16 54 47.67 -01 36 14.9          19.5 V EN015J87
     K10N00G KC2010 07 04.95868 16 54 48.46 -01 38 53.5                 EN015J95
     K10N00G KC2010 07 04.96337 16 54 48.79 -01 39 35.2                 EN015J95
     K10N00G KC2010 07 04.96917 16 54 49.29 -01 40 26.3          19.6 R EN015J95
     K10N00G KC2010 07 05.11407316 55 16.50 -02 01 30.9                 EN015H21
     K10N00G KC2010 07 05.12192316 55 17.10 -02 02 42.1                 EN015H21
     K10N00G KC2010 07 05.13076816 55 17.74 -02 04 03.5          19.5 V EN015H21
     K10N00G  C2010 07 05.25841 16 55 31.25 -02 23 21.5          19.1 R EN015854
     K10N00G  C2010 07 05.26454 16 55 31.71 -02 24 19.2          19.1 R EN015854
     K10N00G  C2010 07 05.29272 16 55 33.63 -02 28 45.3          18.6 V EN015G96
     K10N00G  C2010 07 05.29331 16 55 33.70 -02 28 50.7          18.8 V EN015G96
     K10N00G  C2010 07 05.29389 16 55 33.74 -02 28 56.2          18.8 V EN015G96
     K10N00G  C2010 07 05.29448 16 55 33.78 -02 29 01.8          18.8 V EN015G96

Observer details:
673 Table Mountain Observatory, Wrightwood.  Observers M. Hicks, T. Truong.
    Measurer M. Hicks.
854 Sabino Canyon Observatory, Tucson.  Observer J. E. McGaha.  0.36-m f/10.0
    Schmidt-Cassegrain + CCD.
D90 RAS Observatory, Moorook.  Observer K. Hills.  0.41-m f/9 Ritchey-Chretien
    + CCD.
G96 Mt. Lemmon Survey.  Observer A. Boattini.  Measurers J. D. Ahern,
    E. C. Beshore, A. Boattini, G. J. Garradd, A. R. Gibbs, A. D. Grauer,
    R. E. Hill, R. A. Kowalski, S. M. Larson, R. H. McNaught.  1.5-m reflector
    + CCD.
H21 Astronomical Research Observatory, Westfield.  Observer R. Holmes.  0.81-m
    f/4.0 astrograph + CCD.
J87 La Canada.  Observer J. Lacruz.  0.40-m Ritchey-Chretien + CCD.
J95 Great Shefford.  Observer P. Birtwhistle.  0.40-m f/6.0 Schmidt-Cassegrain
    + CCD.

Orbital elements:
2010 NG                                                  Earth MOID = 0.0145 AU
Epoch 2010 July 23.0 TT = JDT 2455400.5                 MPC
M 354.13335              (2000.0)            P               Q
n   0.51951026     Peri.  207.39760     +0.69070300     +0.70982769
a   1.5325217      Node   106.65414     -0.63428271     +0.68640409
e   0.3439391      Incl.    8.28839     -0.34729643     +0.15809513
P   1.90           H   24.8           G   0.15           U   7
Residuals in seconds of arc
100704 G96  0.1-  0.2-    100704 D90  1.1+  0.2+    100705 H21  0.6-  0.1+
100704 G96  0.3-  0.0     100704 D90  0.9-  0.4-    100705 H21  0.1+  0.5+
100704 G96  0.4+  0.3-    100704 D90  1.4+  0.4+    100705 H21  0.5+  0.1-
100704 G96  0.3-  0.0     100704 J87  0.3+  0.2+    100705 854  0.9-  0.2+
100704 G96  0.3+  0.1+    100704 J87  0.5+  0.1+    100705 854  0.0   0.1+
100704 G96  0.1+  0.1+    100704 J87  0.3+  0.0     100705 G96  0.1+  0.2-
100704 G96  0.1+  0.0     100704 J95  0.4+  0.2+    100705 G96  0.5+  0.1-
100704 G96  0.0   0.2-    100704 J95  0.2-  0.2-    100705 G96  0.5+  0.1-
100704 673  0.3+  0.5+    100704 J95  0.3+  0.2-    100705 G96  0.5+  0.1-

Ephemeris:
2010 NG                  a,e,i = 1.53, 0.34, 8                   q = 1.0054
Date    TT    R. A. (2000) Decl.     Delta      r     Elong.  Phase     V
2010 07 03    16 51.16   +02 20.5    0.0448   1.052   142.0    36.5    19.6
2010 07 04    16 52.84   +00 31.5    0.0408   1.050   142.9    35.8    19.4
2010 07 05    16 54.94   -01 41.7    0.0369   1.047   143.9    34.9    19.2
2010 07 06    16 57.60   -04 26.8    0.0331   1.044   145.3    33.6    18.9
2010 07 07    17 01.04   -07 54.8    0.0294   1.042   147.1    32.0    18.6
2010 07 08    17 05.62   -12 21.6    0.0259   1.039   149.2    30.0    18.3
2010 07 09    17 11.91   -18 09.7    0.0226   1.037   151.6    27.8    17.9
2010 07 10    17 21.02   -25 48.9    0.0196   1.034   153.6    25.9    17.5
2010 07 11    17 35.20   -35 51.1    0.0171   1.032   153.4    26.1    17.2
2010 07 12    17 59.79   -48 25.7    0.0154   1.030   148.7    30.8    17.1
2010 07 13    18 50.23   -62 20.9    0.0147   1.028   139.0    40.4    17.3
2010 07 14    20 55.27   -73 29.6    0.0152   1.026   127.0    52.3    17.7
2010 07 15    00 22.65   -74 18.2    0.0167   1.024   115.7    63.5    18.2
2010 07 16    02 14.80   -67 40.6    0.0190   1.022   106.6    72.4    18.8
2010 07 17    03 00.67   -60 48.0    0.0218   1.020    99.7    79.1    19.3
2010 07 18    03 23.64   -55 09.2    0.0250   1.019    94.6    84.0    19.8
2010 07 19    03 37.15   -50 41.0    0.0284   1.017    90.9    87.5    20.2
2010 07 20    03 46.01   -47 08.0    0.0320   1.016    88.1    90.1    20.5
2010 07 21    03 52.24   -44 16.7    0.0357   1.014    86.0    92.0    20.9
2010 07 22    03 56.88   -41 56.6    0.0394   1.013    84.5    93.3    21.1
2010 07 23    04 00.48   -40 00.3    0.0432   1.012    83.3    94.2    21.4
2010 07 24    04 03.35   -38 22.3    0.0471   1.011    82.5    94.9    21.6
2010 07 25    04 05.72   -36 58.8    0.0509   1.010    81.8    95.3    21.8
2010 07 26    04 07.71   -35 46.7    0.0548   1.009    81.4    95.5    21.9
2010 07 27    04 09.42   -34 43.7    0.0587   1.008    81.1    95.6    22.1
2010 07 28    04 10.91   -33 48.4    0.0626   1.007    80.9    95.6    22.2

Carl W. Hergenrother         (C) Copyright 2010 MPC           M.P.E.C. 2010-N15

Read MPEC 2010-N14 Read MPEC 2010-N16


MPEC number:

Enter an MPEC number in one of the following forms:

  • 1997-B01 (the full form)
  • J97B01 (the packed version of the full form)
  • B01 (the abbreviated form)

Valid HTML 4.01!